Weather in Tebing Tinggi

Indonesia     3°20′36″N   99°09′42″E
temp.,
°C
wind,
m/s
gust,
m/s
humid.,
%
clouds,
%
prec.,
mm/h
press.,
hPa
HPBL,
m
13 may, thu
thu1301:00+24wsw149992 5.1 1007111
04:00+23ssw1198100 0.6 100513
07:00+23s1196100 0.6 100650
10:00+31se116568 0.0 1008762
13:00+31e1273100 1.5 10061070
16:00+29ne1385100 3.8 1004360
19:00+25n1195100 5.0 100619
22:00+25w1196100 0.8 100724
14 may, fri
fri1401:00+24wsw1197100 0.8 100722
04:00+24sw119797 0.0 100518
07:00+24s1194100 0.0 100748
10:00+30se1167100 0.1 1008714
13:00+34n215184 0.2 10051843
16:00+29ese1283100 2.7 1004432
19:00+25s1195100 4.4 100611
22:00+24s119886 2.1 100818
15 may, sat
sat1501:00+24sw1198100 4.4 100614
04:00+23sw119819 0.1 100516
07:00+24ssw119634 0.1 100740
10:00+31ese016976 0.7 1008683
13:00+29n228254 3.6 1006778
16:00+30nnw138037 2.9 1004618
19:00+25nw119498 4.5 100612
22:00+24wsw119746 0.9 100813
16 may, sun
sun1601:00+24w119995 2.4 100728
04:00+23wsw119895 0.0 100621
07:00+24sw119697 0.0 100731
10:00+30n0174100 0.4 1008589
13:00+30nne127949 3.6 1006810
16:00+29n128397 3.9 1005753
19:00+25n1193100 4.8 100711
22:00+24wsw119696 0.5 100817
17 may, mon
mon1701:00+23wsw1399100 4.3 100895
04:00+23wsw119845 1.2 100732
07:00+24wsw119798 1.4 100851
10:00+28ssw0086100 1.7 1009252
13:00+30ne0178100 4.8 1007720
16:00+28n1288100 3.2 1006415
19:00+25n1195100 4.6 100714
22:00+24wsw129789 2.7 100954